Location: ????????
(55.3155°N, 39.2900°E)
Time: 18:59:48
(UTC+00:00)

ACS3 Solar Sail - Pass Details

Date: 15 November 2025
Orbit: 889 x 1003 km, 97.3° (Epoch: 06 December)

Event Time Altitude Azimuth Distance (km) Brightness Sun altitude
Rises 03:50:12 0° 9° (N) 3,543 4.6 -9.3°
Reaches altitude 10° 03:54:38 10° 337° (NNW) 2,622 3.7 -8.7°
Maximum altitude 03:56:14 11° 320° (NW) 2,543 3.5 -8.5°
Drops below altitude 10° 03:57:52 10° 304° (NW) 2,640 3.4 -8.3°
Enters shadow 03:58:15 - 300° (WNW) 2,688 3.5 -8.2°
